Location: Spondin
(51.8528°N, 111.6118°W)
Time: 18:23:10
(UTC+00:00)

Vanguard 2 Rocket - Pass Details

Date: 29 May 2022
Orbit: 553 x 3323 km, 32.9° (Epoch: 02 July)

Event Time Altitude Azimuth Distance (km) Brightness Sun altitude
Rises 19:37:34 0° 224° (SW) 7,196 11.8 59.7°
Reaches altitude 10° 19:43:09 10° 215° (SW) 6,267 11.8 59.6°
Maximum altitude 19:59:22 33° 162° (SSE) 4,350 11.4 59.1°
Drops below altitude 10° 20:12:31 10° 107° (ESE) 5,096 10.8 58.4°
Sets 20:16:25 0° 98° (E) 5,746 10.9 58.2°
